Location: Zagreb
(45.8000°N, 16.0000°E)
Time: 01:17:57
(UTC+01:00)

SR - Pass Details

Date: 19 August 2020
Orbit: 576 x 879 km, 66.7° (Epoch: 15 January)

Event Time Altitude Azimuth Distance (km) Brightness Sun altitude
Rises 05:29:57 0° 322° (NW) 2,828 ? -5.9°
Reaches altitude 10° 05:32:10 10° 317° (NW) 1,946 ? -5.5°
Maximum altitude 05:36:23 50° 242° (WSW) 803 ? -4.9°
Drops below altitude 10° 05:40:52 10° 168° (SSE) 2,071 ? -4.2°
Sets 05:43:18 0° 163° (SSE) 3,030 ? -3.8°
